Weather Roundup
Issued by NWS Chicago, IL

Home | Current Version | Previous Version | Graphics & Text | Print | Product List | Glossary On
Versions: 1 2 3 4 5 6 7 8 9 10 11 12 13 14 15 16 17 18 19 20 21 22 23 24 25 26 27 28 29 30 31 32 33 34 35 36 37 38 39 40 41 42 43 44 45 46 47 48 49 50
000
NZUS59 KLOT 171900
HRRLOT

CHICAGO AREA WEATHER ROUNDUP
NATIONAL WEATHER SERVICE CHICAGO/ROMEOVILLE IL
200 PM CDT WED SEP 17 2014

NOTE: "FAIR" INDICATES FEW OR NO CLOUDS BELOW 12,000 FEET WITH NO
SIGNIFICANT WEATHER AND/OR OBSTRUCTIONS TO VISIBILITY.

* THESE STATIONS ARE NOT UNDER NWS QUALITY CONTROL. THEY ALSO MAY NOT
  REPORT WEATHER SUCH AS PRECIPITATION OR FOG.

ILZ005-006-012>014-019>023-172000-
NORTHEAST ILLINOIS

CITY           SKY/WX    TMP DP  RH WIND       PRES   REMARKS
OHARE          PTSUNNY   70  44  39 SW7       30.00F
MIDWAY         PTSUNNY   69  47  45 SW9       30.00F
AURORA         SUNNY     69  45  41 W7        30.01F
LANSING*       SUNNY     68  47  48 W9        30.01F
WAUKEGAN       SUNNY     66  45  46 S5        29.99F
DUPAGE AIRPORT CLOUDY    69  46  43 SW6       30.00F
WHEELING       MOSUNNY   69  45  41 W6        30.01F
NORTHERLY IS     N/A     64  48  56 E8          N/A
$$

WIZ051-052-058>065-066-070>072-172000-
SOUTHEAST WISCONSIN

CITY           SKY/WX    TMP DP  RH WIND       PRES   REMARKS
MILWAUKEE      MOSUNNY   67  45  45 SW10      29.99F
KENOSHA*       SUNNY     67  47  48 W7        30.00F
RACINE*        MOSUNNY   67  46  47 W8        30.01F
WAUKESHA       SUNNY     64  43  45 CALM      30.00F
$$

INZ001>003-010>013-019-020-172000-
NORTHWEST INDIANA

CITY           SKY/WX    TMP DP  RH WIND       PRES   REMARKS
GARY*          MOSUNNY   70  46  43 VRB6      30.02F
MICHIGAN CITY* NOT AVBL
RENSSELAER*    NOT AVBL
VALPARAISO     MOSUNNY   67  47  48 NW7       30.02F
$$

LMZ740>746-172000-
SOUTHERN LAKE MICHIGAN

STATION/POSITION TIME  SKY/WX   TEMP WIND        PRES    VSBY
                                AIR  DIR/SP/G
                 (UTC)          (F)  (DEG/KT/KT) (MB)    (MI)
HARRISON CRIB    1800            62   90/  7/  8   N/A
BURNHAM HARBOR   1900            64   80/  7/  9   N/A
CALUMET HARBOR   1800            62   50/  8/  9 1015.1F
BURNS HARBOR     NOT AVBL
MICHIGAN CITY    1800            64  290/  6/  8   N/A
$$

ABBREVIATIONS USED IN REMARKS
   TC - TEMPERATURE IN CELSIUS
  WCI - WIND CHILL INDEX
   HX - HEAT INDEX
  VSB - VISIBILITY
$$



USA.gov is the U.S. government's official web portal to all federal, state and local government web resources and services.